Weather History for Salt Lake City, UT

Change the Weather History Date:

Sunday, December 25, 2011

  Actual Average Record
Temperature  
Mean Temperature 29 °F 29 °F  
Max Temperature 41 °F 37 °F 59 °F (1955)
Min Temperature 17 °F 22 °F -10 °F (1879)
Degree Days  
Heating Degree Days 36 36  
Month to date heating degree days 929 862  
Since 1 July heating degree days 2032 2080  
Cooling Degree Days 0 0  
Month to date cooling degree days 0 0  
Year to date cooling degree days 1162 1160  
Moisture  
Dew Point 15 °F    
Average Humidity 59    
Maximum Humidity 84    
Minimum Humidity 33    
Precipitation  
Precipitation 0.00 in 0.05 in 1.14 in (2003)
Month to date precipitation 0.03 1.15  
Year to date precipitation 19.14 15.84  
Snow  
Snow 0.00 in 0.40 in 7.20 in (2008)
Month to date snowfall 0.1 10.4  
Since 1 July snowfall 5.6 19.4  
Snow Depth 0.00 in    
Sea Level Pressure  
Sea Level Pressure 30.54 in    
Wind  
Wind Speed 3 mph (NNE)    
Max Wind Speed 12 mph    
Max Gust Speed 13 mph    
Visibility 9 miles    
Events      
T = Trace of Precipitation, MM = Missing Value Source: NWS Daily Summary

Daily Weather History Graph

Daily Weather History Graph

Search for Another Location

Airport:

Trip Planner

Search our weather history database for the weather conditions in past years. The results will help you decide how hot, cold, wet, or windy it might be!

Date:

Astronomy

Dec. 25, 2011 Rise Set
Actual Time 7:50 AM MST 5:05 PM MST
Civil Twilight 7:19 AM MST 5:36 PM MST
Nautical Twilight 6:44 AM MST 6:11 PM MST
Astronomical Twilight 6:11 AM MST 6:44 PM MST
Moon 8:30 AM MST (12/25) 6:30 PM MST (12/25)
Length of Visible Light 10h 17m
Length of Day
9h 15m
New Moon, 1% of the Moon is Illuminated
Dec 25
New Moon
Dec 31
First Quarter
Jan 9
Full
Jan 16
Last Quarter
Jan 23
New

Hourly Weather History & Observations

Time (MST) Temp. Windchill Dew Point Humidity Pressure Visibility Wind Dir Wind Speed Gust Speed Precip Events Conditions
12:53 AM 21.0 °F - 15.1 °F 78% 30.67 in 8.0 mi Calm Calm - N/A   Clear
1:53 AM 19.9 °F - 16.0 °F 85% 30.67 in 8.0 mi Calm Calm - N/A   Clear
2:53 AM 19.0 °F 11.1 °F 14.0 °F 81% 30.66 in 8.0 mi SE 5.8 mph - N/A   Clear
3:53 AM 21.0 °F 16.2 °F 14.0 °F 74% 30.66 in 10.0 mi ESE 3.5 mph - N/A   Clear
4:53 AM 17.1 °F - 10.9 °F 77% 30.67 in 10.0 mi Calm Calm - N/A   Clear
5:53 AM 19.9 °F 14.9 °F 12.9 °F 74% 30.66 in 10.0 mi East 3.5 mph - N/A   Clear
6:53 AM 19.0 °F 12.3 °F 12.9 °F 77% 30.67 in 10.0 mi SE 4.6 mph - N/A   Clear
7:53 AM 19.9 °F - 12.9 °F 74% 30.67 in 10.0 mi Calm Calm - N/A   Partly Cloudy
8:53 AM 21.9 °F - 16.0 °F 78% 30.67 in 10.0 mi Calm Calm - N/A   Clear
9:53 AM 26.1 °F 21.9 °F 15.1 °F 63% 30.65 in 10.0 mi SE 3.5 mph - N/A   Partly Cloudy
10:53 AM 30.0 °F - 16.0 °F 56% 30.64 in 10.0 mi Calm Calm - N/A   Partly Cloudy
11:53 AM 33.1 °F - 12.9 °F 43% 30.58 in 10.0 mi Calm Calm - N/A   Partly Cloudy
12:53 PM 37.9 °F 35.5 °F 12.0 °F 35% 30.52 in 10.0 mi NE 3.5 mph - N/A   Partly Cloudy
1:53 PM 39.2 °F 35.0 °F 12.2 °F 33% 30.42 in 10.0 mi NW 5.8 mph - N/A   Partly Cloudy
2:53 PM 39.2 °F 34.2 °F 15.8 °F 39% 30.39 in 10.0 mi NW 6.9 mph - N/A   Scattered Clouds
3:53 PM 36.0 °F 30.3 °F 16.0 °F 44% 30.44 in 10.0 mi NNW 6.9 mph - N/A   Scattered Clouds
4:53 PM 28.4 °F 20.4 °F 19.4 °F 69% 30.36 in 10.0 mi West 8.1 mph - N/A   Partly Cloudy
5:53 PM 26.1 °F 21.9 °F 18.0 °F 71% 30.46 in 10.0 mi North 3.5 mph - N/A   Partly Cloudy
6:53 PM 26.1 °F - 18.0 °F 71% 30.46 in 9.0 mi Calm Calm - N/A   Clear
7:53 PM 25.0 °F - 19.0 °F 78% 30.45 in 8.0 mi Calm Calm - N/A   Partly Cloudy
8:53 PM 24.1 °F 18.2 °F 18.0 °F 77% 30.43 in 8.0 mi SW 4.6 mph - N/A   Partly Cloudy
9:53 PM 21.9 °F - 16.0 °F 78% 30.41 in 8.0 mi Calm Calm - N/A   Partly Cloudy
10:53 PM 19.9 °F 13.4 °F 12.9 °F 74% 30.39 in 8.0 mi North 4.6 mph - N/A   Clear
11:53 PM 19.9 °F 10.1 °F 15.1 °F 81% 30.38 in 8.0 mi North 8.1 mph - N/A   Clear